User: anonymous   Login
Location: Smithers
(54.7670°N, 127.1670°W)
Time: 09:13:07
(UTC-07:00)
Language:

ERBS - Orbit

View from above orbital plane
View from above orbital plane
View from above satellite
View from above satellite

Ground track
Ground track

The orbit data is extracted from the following two-line orbital elements,

1 15354U 84108B   15212.46444746  .00005256  00000-0  15542-3 0  9997
2 15354 057.0091 201.6709 0008388 229.3540 130.6783 15.36566516692367
Epoch (UTC): 31 July 2015 11:08:48
Eccentricity: 0.0008388
inclination: 57.0091°
perigee height: 450 km
apogee height: 462 km
right ascension of ascending node: 201.6709°
argument of perigee: 229.3540°
revolutions per day: 15.36566516
mean anomaly at epoch: 130.6783°
orbit number at epoch: 69236

The dashed part of the orbit path shows where the satellite is in the earth's shadow,  

DLR